Погода Ачисай

Поиск расширенной информации на нашем сайте:

Полезная информация:

Новости сайта



02.01.2020
Опубликован Долгосрочный прогноз погоды по городам России и ближнего зарубежья на январь 2020 года.
Карты: Прогноз на январь и февраль 2020 года, Сравнение прогнозируемой аномалии приземной температуры воздуха на январь 2020 года по разным моделям.




Погода Ачисай - сегодня

Время (UTC), дата Ветер
(°,м/с) 
Видим.   Явления Облачность Т
(°С)
Тd
(°С)
f(%) Тe
(°С)
Pmin
(гПа)
dP
(гПа)
Po
(мм)
O2
(г/м3)
Тmin Tmax R s Состояние
почвы
21 21.10.21 180 (Ю) н/о    10/10 600 м кучево-дожд. 
[Cb cap]
+0.8 -1.2 86 +1  1029.6  0.5  698  280           
00 22.10.21 тихо ()   н/о    10/10 600 м кучево-дожд. 
[Cb cap]
+0.8 -0.9 88 +1  1030.8  1.1  699  281           
06 22.10.21 320 (СЗ) 20000 м    6/6 600 м кучево-дожд. 
[Cb cap]
+3.7 -4.8 54 +3  1033.1  1.3  701  279  +0.1         
09 22.10.21 360 (С) 20000 м    10/8 600 м кучево-дожд., верхняя 
[Cb cap|Ci sp]
+3.8 -5.4 51 +3  1033  -0.1  701  279           
12 22.10.21 340 (С) 20000 м    8/6 600 м кучево-дожд., верхняя 
[Cb cap|Ci sp]
+2.8 -5.7 54 +2  1034.7  1.3  702  280           
15 22.10.21 340 (С) н/о    10/10 600 м кучево-дожд. 
[Cb cap]
+2.3 -5.6 56 +3  1036.4  1.3  703  281    +4.4       
18 22.10.21 340 (С) н/о    8/8 600 м кучево-дожд. 
[Cb cap]
+1.9 -5.8 57 +3  1036.8  0.3  703  282    +4.4       
21 22.10.21 320 (СЗ) н/о    3/3 1000 м 
[Sc]
+0.2 -4.6 70 +1  1036.9  -0.5  703  283           
00 23.10.21 320 (СЗ) н/о    10/10 600 м кучево-дожд. 
[Cb cap]
+0.4 -4.3 71 +1  1036.2  -0.5  702  283           
06 23.10.21 050 (СВ) 20000 м    1/0 верхняя 
[Ci sp]
+6.2 -6.2 41 +6  1033.8  -0.8  702  277  -0.8         
09 23.10.21 090 (В) 20000 м    3/0 верхняя 
[Ci sp]
+9.8 -3.8 38 +11  1031  -1.4  701  273           
12 23.10.21 090 (В) 20000 м    1/0 верхняя 
[Ci sp]
+8 -3.6 44 +8  1031.2  -0.3  701  275           
15 23.10.21 110 (В) н/о    ясно 
+6.4 -2.4 53 +6  1032.6  0.7  701  276    +10.3       
18 23.10.21 340 (С) н/о    ясно 
+7 -5.6 40 +7  1030.7  -1.7  700  276    +10.3       
21 23.10.21 360 (С) н/о    ясно 
+7.2 -3.3 47 +7  1029  -1.4  699  275           
00 24.10.21 050 (СВ) н/о    ясно 
+6.8 -4.4 45 +6  1027.5  -1.6  698  275           
06 24.10.21 020 (С) 20000 м    ясно 
+10.3 -9 25 +9  1023.5  -1.6  696  271  +6.4         
09 24.10.21 050 (СВ) 20000 м    ясно 
+13 -8.6 21 +13  1020.3  -2.1  695  268           
12 24.10.21 050 (СВ) 20000 м    ясно 
+12 -9.4 21 +12  1019.9  -0.7  694  269           
15 24.10.21 360 (С) н/о    ясно 
+11.2 -7.4 26 +10  1019.5  -0.6  694  269    +13.5       
18 24.10.21 050 (СВ) 6-16{17}  н/о    ясно 
+10.2 -5.7 32 +9  1018.2  -1.4  692  269    +13.5       
21 24.10.21 360 (С) 5-15{16}  н/о    3/0 верхняя 
[Ci sp]
+12.3 -6 27 +11  1015.1  -2.2  691  267           
00 25.10.21 050 (СВ) н/о    ясно 
+11 -5.4 31 +11  1015.4  -0.1  691  268           
06 25.10.21 160 (Ю) 20000 м    ясно 
+13.9 -2.5 32 +14  1015.1  0.4  691  265  +6.3         
09 25.10.21 180 (Ю) 20000 м    ясно 
+15.8 -4.1 25 +17  1013.5  -0.9  691  263           
Время (UTC), дата Ветер
(°,м/с) 
Видим.   Явления Облачность Т
(°С)
Тd
(°С)
f(%) Тe
(°С)
Pmin
(гПа)
dP
(гПа)
Po
(мм)
O2
(г/м3)
Тmin Tmax R s Состояние
почвы

Для получения пояснительной информации подведите курсор к названию столбца.

ПОГОДА Ачисай - архив

Всё, что Вы хотите узнать о погоде Ачисай - удобно и подробно!

Выберите нужную дату (начиная с 1 января 2019* года) и нажмите кнопку "Найти".
Будут отображены архивные сводки погоды по пункту Ачисай, начиная с указанной даты.


Отображать данные в формате CSV (для использования в таблицах Excel)


Внимание! Наш архив погоды предназначен исключительно для личного некоммерческого использования в познавательных целях. Если Вам необходимы официальные справки о состоянии погоды (для производственных, юридических, коммерческих и т.п. целей), обращайтесь в органы Росгидромета.

*Примечание: данная дата относится к архиву по метеостанциям СССР (Россия, СНГ, Балтия).
Архив по метеостанциям Зарубежной Европы и Азии (кроме Китая) хранится 10 дней, по другим регионам земного шара (Китай, Африка, Америка, Австралия, Океания) - 1 день.

Ачисай - район местоположения метеостанции


Название, широта, долгота, высота метеостанции:
Ачисай 43.6°ш. 68.9°д. 822 м над ур. моря [Казахстан]

Дополнительная информация

В oтличие oт бoльшинства пoгoдных сайтoв мы публикуем пoдрoбную метеoинфoрмацию в детальнoм прoфессиoнальнoм фoрмате.

Характеристики температуры и влажнoсти вoздуха измеряются на высoте 2 м в тени вдали oт зданий и деревьев.
Скoрoсть ветра измеряется на высoте 10 м (на урoвне рoста челoвека скoрoсть ветра ниже в 1.5-2 раза). Если метеoстанция нахoдится в гoрoде или в лесу, тo скoрoсть ветра занижена на 2-4 м/с пo сравнению с oткрытым местoм. Скoрoсть ветра над акватoриями крупных рек и oзёр, а также на вершинах хoлмoв на 2-5 м/с выше, чем в oбычных услoвиях.
Атмoсфернoе давление в разных тoчках местнoсти мoжет значительнo oтличаться oт давления на метеoстанции, в зависимoсти oт услoвий рельефа (при пoдъёме на 10 м давление пoнижается примернo на 1 мм рт.ст.).